Tracking 21970 objects as of 25-Nov-2020
HD Live streaming from Space Station
objects crossing your sky now

IRIDIUM 33 DEB

Track IRIDIUM 33 DEB now!
10-day predictions


NORAD ID: 35628
Int'l Code: 1997-051RA
Perigee: 735.4 km
Apogee: 762.4 km
Inclination: 86.4 °
Period: 99.6 minutes
Semi major axis: 7119 km
RCS: 0.0194 m2 (small)
Launch date: September 14, 1997
Source: United States (US)
Launch site: TYURATAM MISSILE AND SPACE COMPLEX (TTMTR)

Note: This is SATELLITE DEBRIS
aabbcc
Your satellite tracking list
Your tracking list is empty




NASA's NSSDC Master Catalog

Two Line Element Set (TLE):
1 35628U 97051RA  20329.10260693 +.00000893 +00000-0 +24930-3 0  9990
2 35628 086.3638 090.0601 0019022 038.6622 321.5937 14.45080865596806
Source of the keplerian elements: AFSPC